Date String (YYYY-MM-DD hh:mm:ss) UTC,Instrument flags,Ambient pressure (hPa),Sample flow (lpm),Bypass flow (lpm),Sample temperature (°C),Ambient temperature (°C),ASC tube jacket temperature (°C),LED temperature (°C),Box temperature (°C),Sample RH (%),Span deviation,Mass concentration (μg/m³),Mass concentration (μg/m³),Mass concentration (μg/m³)
DateTimeUTC,F1_M11,P_M11,Q1_M11,Q2_M11,T1_M11,T2_M11,T3_M11,T4_M11,T5_M11,U1_M11,ZSPAN_M11,X2_M11,X0_M11,X1_M11
2023-05-14 07:00:00,,0840.1,4.99,0.00,29.4,27.8,00.0,37.8,31.0,25.8,0000.0,0001.32,0003.02,0001.17
2023-05-14 07:01:00,,0840.2,5.00,0.00,29.4,27.8,00.0,37.8,31.0,25.8,0000.0,0001.32,0003.07,0001.16
2023-05-14 07:02:00,,0840.1,5.00,0.00,29.4,27.8,00.0,37.8,31.0,25.8,0000.0,0001.34,0003.26,0001.16
2023-05-14 07:03:00,,0840.1,5.00,0.00,29.4,27.8,00.0,37.8,31.0,25.8,0000.0,0001.35,0003.30,0001.16
2023-05-14 07:04:00,,0840.1,5.01,0.00,29.4,27.8,00.0,37.8,31.0,25.8,0000.0,0001.36,0003.84,0001.15
2023-05-14 07:05:00,,0840.1,4.99,0.00,29.4,27.8,00.0,37.8,31.0,25.8,0000.0,0001.40,0004.17,0001.15
2023-05-14 07:06:00,,0840.1,5.00,0.00,29.4,27.8,00.0,37.8,31.0,25.8,0000.0,0001.38,0004.12,0001.14
2023-05-14 07:07:00,,0840.1,5.00,0.00,29.4,27.8,00.0,37.8,31.0,25.8,0000.0,0001.40,0004.17,0001.15
2023-05-14 07:08:00,,0840.1,5.00,0.00,29.4,27.8,00.0,37.8,31.0,25.8,0000.0,0001.43,0003.12,0001.15
2023-05-14 07:09:00,,0840.1,4.99,0.00,29.4,27.8,00.0,37.8,31.0,25.8,0000.0,0001.45,0003.11,0001.14
2023-05-14 07:10:00,,0840.1,4.99,0.00,29.4,27.8,00.0,37.8,31.0,25.8,0000.0,0001.45,0003.12,0001.14
2023-05-14 07:11:00,,0840.1,5.01,0.00,29.4,27.8,00.0,37.8,31.0,25.8,0000.0,0001.45,0003.09,0001.15
2023-05-14 07:12:00,,0840.1,5.01,0.00,29.4,27.8,00.0,37.8,31.0,25.8,0000.0,0001.46,0003.05,0001.15
2023-05-14 07:13:00,,0840.1,4.99,0.00,29.5,27.8,00.0,37.8,31.0,25.8,0000.0,0001.46,0003.03,0001.16
2023-05-14 07:14:00,,0840.1,4.99,0.00,29.4,27.8,00.0,37.8,31.0,25.9,0000.0,0001.50,0003.13,0001.16
2023-05-14 07:15:00,,0840.1,4.99,0.00,29.5,27.8,00.0,37.8,31.0,25.9,0000.0,0001.52,0002.77,0001.16
2023-05-14 07:16:00,,0840.1,5.00,0.00,29.5,27.8,00.0,37.8,31.0,25.9,0000.0,0001.51,0002.43,0001.16
2023-05-14 07:17:00,,0840.1,5.01,0.00,29.5,27.8,00.0,37.8,31.0,25.9,0000.0,0001.52,0002.45,0001.18
2023-05-14 07:18:00,,0840.1,5.01,0.00,29.5,27.8,00.0,37.8,31.0,25.9,0000.0,0001.54,0002.47,0001.19
2023-05-14 07:19:00,,0840.1,5.00,0.00,29.5,27.8,00.0,37.8,31.0,25.9,0000.0,0001.52,0002.48,0001.20
2023-05-14 07:20:00,,0840.1,5.00,0.00,29.5,27.8,00.0,37.8,31.0,25.9,0000.0,0001.49,0002.40,0001.20
2023-05-14 07:21:00,,0840.1,4.99,0.00,29.5,27.8,00.0,37.8,31.0,26.0,0000.0,0001.49,0002.39,0001.20
2023-05-14 07:22:00,,0840.1,5.00,0.00,29.5,27.8,00.0,37.8,31.0,25.9,0000.0,0001.49,0002.39,0001.20
2023-05-14 07:23:00,,0840.1,5.02,0.00,29.5,27.8,00.0,37.8,31.0,25.9,0000.0,0001.48,0002.35,0001.21
2023-05-14 07:24:00,,0840.1,5.00,0.00,29.5,27.8,00.0,37.8,31.0,25.9,0000.0,0001.47,0002.23,0001.21
2023-05-14 07:25:00,,0840.1,4.99,0.00,29.5,27.8,00.0,37.8,31.0,25.9,0000.0,0001.43,0002.08,0001.21
2023-05-14 07:26:00,,0840.2,5.00,0.00,29.5,27.8,00.0,37.8,31.0,26.0,0000.0,0001.40,0001.98,0001.21
2023-05-14 07:27:00,,0840.1,5.00,0.00,29.5,27.8,00.0,37.8,31.0,25.9,0000.0,0001.38,0001.93,0001.22
2023-05-14 07:28:00,,0840.1,5.00,0.00,29.5,27.8,00.0,37.8,31.0,25.9,0000.0,0001.37,0001.91,0001.21
2023-05-14 07:29:00,,0840.1,4.99,0.00,29.5,27.8,00.0,37.8,31.0,26.0,0000.0,0001.36,0001.88,0001.21
2023-05-14 07:30:00,,0840.1,5.00,0.00,29.5,27.8,00.0,37.8,31.0,26.0,0000.0,0001.34,0001.77,0001.20
2023-05-14 07:31:00,,0840.1,5.02,0.00,29.5,27.8,00.0,37.8,31.0,26.0,0000.0,0001.35,0001.73,0001.21
2023-05-14 07:32:00,,0840.0,4.99,0.00,29.5,27.8,00.0,37.8,31.0,26.1,0000.0,0001.37,0001.78,0001.23
2023-05-14 07:33:00,,0840.1,4.99,0.00,29.5,27.8,00.0,37.8,31.0,26.0,0000.0,0001.39,0001.81,0001.24
2023-05-14 07:34:00,,0840.0,5.01,0.00,29.5,27.8,00.0,37.8,31.0,25.9,0000.0,0001.39,0001.83,0001.23
2023-05-14 07:35:00,,0840.1,5.01,0.00,29.5,27.8,00.0,37.8,31.0,26.0,0000.0,0001.39,0001.80,0001.23
2023-05-14 07:36:00,,0840.1,4.99,0.00,29.5,27.8,00.0,37.8,31.0,26.1,0000.0,0001.39,0001.78,0001.24
2023-05-14 07:37:00,,0840.1,5.01,0.00,29.5,27.8,00.0,37.8,31.0,26.1,0000.0,0001.40,0001.78,0001.25
2023-05-14 07:38:00,,0840.1,5.01,0.00,29.5,27.8,00.0,37.8,31.0,26.1,0000.0,0001.38,0001.74,0001.25
2023-05-14 07:39:00,,0840.1,4.99,0.00,29.5,27.9,00.0,37.8,31.0,26.1,0000.0,0001.41,0002.08,0001.27
2023-05-14 07:40:00,,0840.1,5.00,0.00,29.5,27.9,00.0,37.8,31.0,26.1,0000.0,0001.42,0002.45,0001.27
2023-05-14 07:41:00,,0840.1,5.01,0.00,29.5,27.9,00.0,37.8,31.0,26.0,0000.0,0001.41,0002.39,0001.27
2023-05-14 07:42:00,,0840.1,5.01,0.00,29.5,27.9,00.0,37.8,31.0,26.0,0000.0,0001.40,0002.36,0001.27
2023-05-14 07:43:00,,0840.1,4.99,0.00,29.5,27.9,00.0,37.8,31.0,26.0,0000.0,0001.39,0002.34,0001.26
2023-05-14 07:44:00,,0840.1,4.99,0.00,29.5,27.9,00.0,37.8,31.0,26.0,0000.0,0001.37,0002.31,0001.25
2023-05-14 07:45:00,,0840.1,5.00,0.00,29.5,27.9,00.0,37.9,31.0,26.0,0000.0,0001.36,0002.28,0001.25
2023-05-14 07:46:00,,0840.1,5.00,0.00,29.5,27.9,00.0,37.9,31.0,26.0,0000.0,0001.36,0002.27,0001.26
2023-05-14 07:47:00,,0840.1,5.00,0.00,29.5,27.9,00.0,37.8,31.0,26.0,0000.0,0001.36,0002.29,0001.25
2023-05-14 07:48:00,,0840.1,4.99,0.00,29.5,27.9,00.0,37.9,31.0,26.0,0000.0,0001.34,0002.29,0001.22
2023-05-14 07:49:00,,0840.0,4.99,0.00,29.5,27.9,00.0,37.8,31.1,25.9,0000.0,0001.32,0002.74,0001.19
2023-05-14 07:50:00,,0840.0,5.01,0.00,29.5,27.9,00.0,37.9,31.1,25.9,0000.0,0001.31,0002.80,0001.16
2023-05-14 07:51:00,,0840.0,4.99,0.00,29.5,27.9,00.0,37.9,31.1,25.9,0000.0,0001.29,0002.43,0001.12
2023-05-14 07:52:00,,0840.0,5.00,0.00,29.5,27.9,00.0,37.9,31.0,25.9,0000.0,0001.27,0002.58,0001.09
2023-05-14 07:53:00,,0840.0,5.01,0.00,29.5,27.9,00.0,37.9,31.0,25.8,0000.0,0001.24,0002.57,0001.04
2023-05-14 07:54:00,,0840.0,5.00,0.00,29.5,27.9,00.0,37.9,31.0,25.8,0000.0,0001.19,0002.52,0001.00
2023-05-14 07:55:00,,0840.0,4.99,0.00,29.5,27.8,00.0,37.9,31.0,25.8,0000.0,0001.15,0002.47,0000.96
2023-05-14 07:56:00,,0840.1,5.00,0.00,29.5,27.8,00.0,37.9,31.0,25.8,0000.0,0001.12,0002.45,0000.91
2023-05-14 07:57:00,,0840.1,5.01,0.00,29.5,27.8,00.0,37.9,31.0,25.8,0000.0,0001.08,0002.40,0000.86
2023-05-14 07:58:00,,0840.1,5.00,0.00,29.5,27.8,00.0,37.8,31.0,25.8,0000.0,0001.05,0002.43,0000.81
2023-05-14 07:59:00,,0840.1,4.99,0.00,29.5,27.8,00.0,37.8,31.0,25.9,0000.0,0001.00,0002.37,0000.77
